Location: Newark
(40.7636°N, 73.9728°W)
Time: 05:35:30
(UTC+00:00)

ISS - Pass Details

Date: 23 September 2019
Orbit: 411 x 421 km, 51.6° (Epoch: 16 October)

Event Time Altitude Azimuth Distance (km) Brightness Sun altitude
Rises 23:58:07 0° 249° (WSW) 2,334 1.1 -13.0°
Reaches altitude 10° 00:00:16 10° 257° (WSW) 1,475 0.1 -13.4°
Maximum altitude 00:03:26 41° 330° (NNW) 605 -2.6 -14.0°
Enters shadow 00:06:25 11° 42° (NE) 1,405 -1.4 -14.5°
